Abilene Dyess, TX

12:57 PM CST on November 12, 2019 (GMT -0600)
Dyess Air Force Base

Weather History for KDYS - July, 2019

Change the Weather History Date:

Friday, July 26, 2019

  Actual Average Record
Temperature  
Mean Temperature 80 °F -  
Max Temperature 92 °F 95 °F 104 °F (1998)
Min Temperature 67 °F 74 °F 64 °F (2004)
Cooling Degree Days 14    
Growing Degree Days 30 (Base 50)    
Moisture  
Dew Point 50 °F    
Average Humidity 38    
Maximum Humidity 57    
Minimum Humidity 22    
Precipitation  
Precipitation 0.00 in - - ()
Sea Level Pressure  
Sea Level Pressure 30.00 in    
Wind  
Wind Speed 11 mph (SE)    
Max Wind Speed 15 mph    
Max Gust Speed -    
Visibility 10 miles    
Events      
Averages and records for this station are not official NWS values.
T = Trace of Precipitation, MM = Missing Value Source: NWS Daily Summary

Daily Weather History Graph

Daily Weather History Graph

Search for Another Location

Airport or City:

Astronomy

Jul. 26, 2019 Rise Set
Actual Time 6:49 AM CDT 8:41 PM CDT
Civil Twilight 6:22 AM CDT 9:08 PM CDT
Nautical Twilight 5:49 AM CDT 9:41 PM CDT
Astronomical Twilight 5:14 AM CDT 10:16 PM CDT
Moon 1:56 AM CDT (7/26) 3:33 PM CDT (7/26)
Length of Visible Light 14h 46m
Length of Day
13h 51m
Waning Crescent, 34% of the Moon is Illuminated
Jul 26
Waning Crescent
Jul 31
New
Aug 7
First Quarter
Aug 15
Full
Aug 23
Last Quarter

Hourly Weather History & Observations

Time (CDT) Temp. Dew Point Humidity Pressure Visibility Wind Dir Wind Speed Gust Speed Precip Events Conditions
12:56 AM 73.4 °F 48.2 °F 41% 29.99 in 10.0 mi SE 11.5 mph - N/A   Clear
1:56 AM 68.5 °F 49.6 °F 51% 30.00 in 10.0 mi SSE 9.2 mph - N/A   Clear
2:56 AM 69.1 °F 50.2 °F 51% 29.99 in 10.0 mi SSE 9.2 mph - N/A   Clear
3:56 AM 68.7 °F 50.9 °F 53% 30.00 in 10.0 mi SSE 12.7 mph - N/A   Clear
4:56 AM 68.2 °F 51.4 °F 55% 29.99 in 10.0 mi SE 13.8 mph - N/A   Clear
5:56 AM 67.3 °F 51.4 °F 57% 29.99 in 10.0 mi SE 11.5 mph - N/A   Clear
6:56 AM 67.3 °F 51.4 °F 57% 30.01 in 10.0 mi SE 11.5 mph - N/A   Clear
7:56 AM 70.9 °F 52.3 °F 52% 30.02 in 10.0 mi SE 10.4 mph - N/A   Clear
8:56 AM 75.7 °F 52.9 °F 45% 30.04 in 10.0 mi SE 15.0 mph - N/A   Clear
9:56 AM 79.2 °F 52.7 °F 40% 30.04 in 10.0 mi SSE 10.4 mph - N/A   Clear
10:56 AM 82.9 °F 50.9 °F 33% 30.04 in 10.0 mi South 9.2 mph - N/A   Clear
11:56 AM 84.9 °F 50.9 °F 31% 30.04 in 10.0 mi SSE 9.2 mph - N/A   Clear
12:56 PM 86.2 °F 49.3 °F 28% 30.03 in 10.0 mi SE 4.6 mph - N/A   Partly Cloudy
2:56 PM 88.9 °F 48.4 °F 25% 29.99 in 10.0 mi SE 12.7 mph - N/A   Scattered Clouds
3:56 PM 91.0 °F 49.1 °F 24% 29.98 in 10.0 mi SE 5.8 mph - N/A   Partly Cloudy
4:56 PM 92.1 °F 47.8 °F 22% 29.96 in 10.0 mi ESE 10.4 mph - N/A   Clear
5:56 PM 91.8 °F 47.5 °F 22% 29.95 in 10.0 mi ENE 12.7 mph - N/A   Clear
6:56 PM 91.0 °F 46.9 °F 22% 29.94 in 10.0 mi East 8.1 mph - N/A   Clear
7:56 PM 88.0 °F 47.7 °F 25% 29.95 in 10.0 mi East 11.5 mph - N/A   Clear
8:56 PM 84.0 °F 47.3 °F 28% 29.97 in 10.0 mi East 9.2 mph - N/A   Clear
9:56 PM 81.5 °F 49.6 °F 33% 29.99 in 10.0 mi East 9.2 mph - N/A   Clear
10:56 PM 79.2 °F 50.5 °F 37% 30.00 in 10.0 mi ESE 11.5 mph - N/A   Clear
11:56 PM 77.9 °F 51.6 °F 40% 30.00 in 10.0 mi ESE 11.5 mph - N/A   Clear